Year,Month,Day,Hour,Minute,Value (Times are PST for temperature in C)
2017,07,09,00,00,18.80
2017,07,09,00,01,18.80
2017,07,09,00,02,18.80
2017,07,09,00,03,18.80
2017,07,09,00,04,18.80
2017,07,09,00,05,18.70
2017,07,09,00,06,18.70
2017,07,09,00,07,18.70
2017,07,09,00,08,18.60
2017,07,09,00,09,18.60
2017,07,09,00,10,18.50
2017,07,09,00,11,18.50
2017,07,09,00,12,18.40
2017,07,09,00,13,18.40
2017,07,09,00,14,18.30
2017,07,09,00,15,18.30
2017,07,09,00,16,18.30
2017,07,09,00,17,18.30
2017,07,09,00,18,18.30
2017,07,09,00,19,18.30
2017,07,09,00,20,18.30
2017,07,09,00,21,18.20
2017,07,09,00,22,18.20
2017,07,09,00,23,18.20
2017,07,09,00,24,18.10
2017,07,09,00,25,18.10
2017,07,09,00,26,18.10
2017,07,09,00,27,18.10
2017,07,09,00,28,18.00
2017,07,09,00,29,18.00
2017,07,09,00,30,18.00
2017,07,09,00,31,18.00
2017,07,09,00,32,17.90
2017,07,09,00,33,17.90
2017,07,09,00,34,17.90
2017,07,09,00,35,17.90
2017,07,09,00,36,17.80
2017,07,09,00,37,17.80
2017,07,09,00,38,17.80
2017,07,09,00,39,17.80
2017,07,09,00,40,17.80
2017,07,09,00,41,17.80
2017,07,09,00,42,17.80
2017,07,09,00,43,17.80
2017,07,09,00,44,17.80
2017,07,09,00,45,17.80
2017,07,09,00,46,17.70
2017,07,09,00,47,17.70
2017,07,09,00,48,17.70
2017,07,09,00,49,17.70
2017,07,09,00,50,17.70
2017,07,09,00,51,17.70
2017,07,09,00,52,17.70
2017,07,09,00,53,17.70
2017,07,09,00,54,17.60
2017,07,09,00,55,17.60
2017,07,09,00,56,17.60
2017,07,09,00,57,17.60
2017,07,09,00,58,17.60
2017,07,09,00,59,17.60
2017,07,09,01,00,17.60
2017,07,09,01,01,17.60
2017,07,09,01,02,17.60
2017,07,09,01,03,17.60
2017,07,09,01,04,17.60
2017,07,09,01,05,17.60
2017,07,09,01,06,17.60
2017,07,09,01,07,17.50
2017,07,09,01,08,17.50
2017,07,09,01,09,17.50
2017,07,09,01,10,17.50
2017,07,09,01,11,17.50
2017,07,09,01,12,17.50
2017,07,09,01,13,17.50
2017,07,09,01,14,17.40
2017,07,09,01,15,17.40
2017,07,09,01,16,17.40
2017,07,09,01,17,17.40
2017,07,09,01,18,17.40
2017,07,09,01,19,17.40
2017,07,09,01,20,17.40
2017,07,09,01,21,17.40
2017,07,09,01,22,17.40
2017,07,09,01,23,17.40
2017,07,09,01,24,17.40
2017,07,09,01,25,17.40
2017,07,09,01,26,17.40
2017,07,09,01,27,17.40
2017,07,09,01,28,17.40
2017,07,09,01,29,17.40
2017,07,09,01,30,17.40
2017,07,09,01,31,17.40
2017,07,09,01,32,17.30
2017,07,09,01,33,17.30
2017,07,09,01,34,17.30
2017,07,09,01,35,17.30
2017,07,09,01,36,17.40
2017,07,09,01,37,17.40
2017,07,09,01,38,17.40
2017,07,09,01,39,17.50
2017,07,09,01,40,17.50
2017,07,09,01,41,17.60
2017,07,09,01,42,17.60
2017,07,09,01,43,17.60
2017,07,09,01,44,17.60
2017,07,09,01,45,17.60
2017,07,09,01,46,17.70
2017,07,09,01,47,17.70
2017,07,09,01,48,17.70
2017,07,09,01,49,17.70
2017,07,09,01,50,17.70
2017,07,09,01,51,17.80
2017,07,09,01,52,17.80
2017,07,09,01,53,17.80
2017,07,09,01,54,17.80
2017,07,09,01,55,17.80
2017,07,09,01,56,17.80
2017,07,09,01,57,17.80
2017,07,09,01,58,17.80
2017,07,09,01,59,17.70
2017,07,09,02,00,17.70
2017,07,09,02,01,17.70
2017,07,09,02,02,17.70
2017,07,09,02,03,17.70
2017,07,09,02,04,17.60
2017,07,09,02,05,17.60
2017,07,09,02,06,17.60
2017,07,09,02,07,17.60
2017,07,09,02,08,17.60
2017,07,09,02,09,17.60
2017,07,09,02,10,17.60
2017,07,09,02,11,17.60
2017,07,09,02,12,17.60
2017,07,09,02,13,17.60
2017,07,09,02,14,17.60
2017,07,09,02,15,17.60
2017,07,09,02,16,17.60
2017,07,09,02,17,17.60
2017,07,09,02,18,17.60
2017,07,09,02,19,17.60
2017,07,09,02,20,17.50
2017,07,09,02,21,17.50
2017,07,09,02,22,17.60
2017,07,09,02,23,17.60
2017,07,09,02,24,17.60
2017,07,09,02,25,17.60
2017,07,09,02,26,17.60
2017,07,09,02,27,17.60
2017,07,09,02,28,17.60
2017,07,09,02,29,17.60
2017,07,09,02,30,17.50
2017,07,09,02,31,17.50
2017,07,09,02,32,17.40
2017,07,09,02,33,17.40
2017,07,09,02,34,17.30
2017,07,09,02,35,17.30
2017,07,09,02,36,17.30
2017,07,09,02,37,17.20
2017,07,09,02,38,17.20
2017,07,09,02,39,17.20
2017,07,09,02,40,17.20
2017,07,09,02,41,17.10
2017,07,09,02,42,17.10
2017,07,09,02,43,17.10
2017,07,09,02,44,17.10
2017,07,09,02,45,17.10
2017,07,09,02,46,17.00
2017,07,09,02,47,17.00
2017,07,09,02,48,17.00
2017,07,09,02,49,17.00
2017,07,09,02,50,16.90
2017,07,09,02,51,16.90
2017,07,09,02,52,16.90
2017,07,09,02,53,16.90
2017,07,09,02,54,16.90
2017,07,09,02,55,16.90
2017,07,09,02,56,16.90
2017,07,09,02,57,16.90
2017,07,09,02,58,16.90
2017,07,09,02,59,16.90
2017,07,09,03,00,16.90
2017,07,09,03,01,16.90
2017,07,09,03,02,17.00
2017,07,09,03,03,17.00
2017,07,09,03,04,17.00
2017,07,09,03,05,17.00
2017,07,09,03,06,17.10
2017,07,09,03,07,17.10
2017,07,09,03,08,17.10
2017,07,09,03,09,17.10
2017,07,09,03,10,17.10
2017,07,09,03,11,17.10
2017,07,09,03,12,17.10
2017,07,09,03,13,17.10
2017,07,09,03,14,17.10
2017,07,09,03,15,17.10
2017,07,09,03,16,17.10
2017,07,09,03,17,17.10
2017,07,09,03,18,17.10
2017,07,09,03,19,17.00
2017,07,09,03,20,17.00
2017,07,09,03,21,17.00
2017,07,09,03,22,17.00
2017,07,09,03,23,16.90
2017,07,09,03,24,16.90
2017,07,09,03,25,16.90
2017,07,09,03,26,17.00
2017,07,09,03,27,17.00
2017,07,09,03,28,17.00
2017,07,09,03,29,17.00
2017,07,09,03,30,17.00
2017,07,09,03,31,17.00
2017,07,09,03,32,17.00
2017,07,09,03,33,17.00
2017,07,09,03,34,17.00
2017,07,09,03,35,17.00
2017,07,09,03,36,17.00
2017,07,09,03,37,17.00
2017,07,09,03,38,17.00
2017,07,09,03,39,17.00
2017,07,09,03,40,17.00
2017,07,09,03,41,16.90
2017,07,09,03,42,16.90
2017,07,09,03,43,16.90
2017,07,09,03,44,16.90
2017,07,09,03,45,16.90
2017,07,09,03,46,16.90
2017,07,09,03,47,16.90
2017,07,09,03,48,16.90
2017,07,09,03,49,16.90
2017,07,09,03,50,16.90
2017,07,09,03,51,16.90
2017,07,09,03,52,16.90
2017,07,09,03,53,16.80
2017,07,09,03,54,16.90
2017,07,09,03,55,16.90
2017,07,09,03,56,16.90
2017,07,09,03,57,16.80
2017,07,09,03,58,16.80
2017,07,09,03,59,16.80
2017,07,09,04,00,16.80
2017,07,09,04,01,16.80
2017,07,09,04,02,16.80
2017,07,09,04,03,16.80
2017,07,09,04,04,16.80
2017,07,09,04,05,16.80
2017,07,09,04,06,16.80
2017,07,09,04,07,16.80
2017,07,09,04,08,16.80
2017,07,09,04,09,16.80
2017,07,09,04,10,16.80
2017,07,09,04,11,16.80
2017,07,09,04,12,16.80
2017,07,09,04,13,16.70
2017,07,09,04,14,16.70
2017,07,09,04,15,16.70
2017,07,09,04,16,16.70
2017,07,09,04,17,16.70
2017,07,09,04,18,16.70
2017,07,09,04,19,16.70
2017,07,09,04,20,16.70
2017,07,09,04,21,16.70
2017,07,09,04,22,16.80
2017,07,09,04,23,16.80
2017,07,09,04,24,16.80
2017,07,09,04,25,16.80
2017,07,09,04,26,16.80
2017,07,09,04,27,16.80
2017,07,09,04,28,16.80
2017,07,09,04,29,16.80
2017,07,09,04,30,16.80
2017,07,09,04,31,16.80
2017,07,09,04,32,16.80
2017,07,09,04,33,16.70
2017,07,09,04,34,16.70
2017,07,09,04,35,16.70
2017,07,09,04,36,16.70
2017,07,09,04,37,16.70
2017,07,09,04,38,16.70
2017,07,09,04,39,16.70
2017,07,09,04,40,16.60
2017,07,09,04,41,16.60
2017,07,09,04,42,16.60
2017,07,09,04,43,16.60
2017,07,09,04,44,16.60
2017,07,09,04,45,16.60
2017,07,09,04,46,16.60
2017,07,09,04,47,16.60
2017,07,09,04,48,16.60
2017,07,09,04,49,16.60
2017,07,09,04,50,16.60
2017,07,09,04,51,16.60
2017,07,09,04,52,16.60
2017,07,09,04,53,16.60
2017,07,09,04,54,16.60
2017,07,09,04,55,16.60
2017,07,09,04,56,16.60
2017,07,09,04,57,16.60
2017,07,09,04,58,16.60
2017,07,09,04,59,16.60
2017,07,09,05,00,16.60
2017,07,09,05,01,16.60
2017,07,09,05,02,16.60
2017,07,09,05,03,16.60
2017,07,09,05,04,16.60
2017,07,09,05,05,16.60
2017,07,09,05,06,16.70
2017,07,09,05,07,16.70
2017,07,09,05,08,16.70
2017,07,09,05,09,16.70
2017,07,09,05,10,16.70
2017,07,09,05,11,16.70
2017,07,09,05,12,16.60
2017,07,09,05,13,16.60
2017,07,09,05,14,16.60
2017,07,09,05,15,16.60
2017,07,09,05,16,16.60
2017,07,09,05,17,16.60
2017,07,09,05,18,16.50
2017,07,09,05,19,16.50
2017,07,09,05,20,16.50
2017,07,09,05,21,16.50
2017,07,09,05,22,16.50
2017,07,09,05,23,16.40
2017,07,09,05,24,16.40
2017,07,09,05,25,16.40
2017,07,09,05,26,16.40
2017,07,09,05,27,16.40
2017,07,09,05,28,16.40
2017,07,09,05,29,16.40
2017,07,09,05,30,16.40
2017,07,09,05,31,16.30
2017,07,09,05,32,16.30
2017,07,09,05,33,16.30
2017,07,09,05,34,16.30
2017,07,09,05,35,16.30
2017,07,09,05,36,16.30
2017,07,09,05,37,16.30
2017,07,09,05,38,16.30
2017,07,09,05,39,16.30
2017,07,09,05,40,16.30
2017,07,09,05,41,16.20
2017,07,09,05,42,16.20
2017,07,09,05,43,16.20
2017,07,09,05,44,16.20
2017,07,09,05,45,16.20
2017,07,09,05,46,16.20
2017,07,09,05,47,16.20
2017,07,09,05,48,16.20
2017,07,09,05,49,16.20
2017,07,09,05,50,16.20
2017,07,09,05,51,16.10
2017,07,09,05,52,16.10
2017,07,09,05,53,16.10
2017,07,09,05,54,16.10
2017,07,09,05,55,16.10
2017,07,09,05,56,16.10
2017,07,09,05,57,16.10
2017,07,09,05,58,16.10
2017,07,09,05,59,16.10
2017,07,09,06,00,16.10
2017,07,09,06,01,16.10
2017,07,09,06,02,16.10
2017,07,09,06,03,16.10
2017,07,09,06,04,16.10
2017,07,09,06,05,16.10
2017,07,09,06,06,16.10
2017,07,09,06,07,16.10
2017,07,09,06,08,16.10
2017,07,09,06,09,16.10
2017,07,09,06,10,16.10
2017,07,09,06,11,16.10
2017,07,09,06,12,16.10
2017,07,09,06,13,16.10
2017,07,09,06,14,16.10
2017,07,09,06,15,16.10
2017,07,09,06,16,16.10
2017,07,09,06,17,16.10
2017,07,09,06,18,16.10
2017,07,09,06,19,16.10
2017,07,09,06,20,16.10
2017,07,09,06,21,16.10
2017,07,09,06,22,16.10
2017,07,09,06,23,16.10
2017,07,09,06,24,16.10
2017,07,09,06,25,16.10
2017,07,09,06,26,16.10
2017,07,09,06,27,16.10
2017,07,09,06,28,16.10
2017,07,09,06,29,16.10
2017,07,09,06,30,16.10
2017,07,09,06,31,16.10
2017,07,09,06,32,16.10
2017,07,09,06,33,16.10
2017,07,09,06,34,16.10
2017,07,09,06,35,16.20
2017,07,09,06,36,16.20
2017,07,09,06,37,16.20
2017,07,09,06,38,16.20
2017,07,09,06,39,16.20
2017,07,09,06,40,16.20
2017,07,09,06,41,16.20
2017,07,09,06,42,16.20
2017,07,09,06,43,16.20
2017,07,09,06,44,16.20
2017,07,09,06,45,16.20
2017,07,09,06,46,16.20
2017,07,09,06,47,16.20
2017,07,09,06,48,16.20
2017,07,09,06,49,16.20
2017,07,09,06,50,16.20
2017,07,09,06,51,16.20
2017,07,09,06,52,16.20
2017,07,09,06,53,16.20
2017,07,09,06,54,16.20
2017,07,09,06,55,16.20
2017,07,09,06,56,16.20
2017,07,09,06,57,16.20
2017,07,09,06,58,16.20
2017,07,09,06,59,16.30
2017,07,09,07,00,16.20
2017,07,09,07,01,16.30
2017,07,09,07,02,16.30
2017,07,09,07,03,16.30
2017,07,09,07,04,16.30
2017,07,09,07,05,16.30
2017,07,09,07,06,16.30
2017,07,09,07,07,16.30
2017,07,09,07,08,16.30
2017,07,09,07,09,16.30
2017,07,09,07,10,16.30
2017,07,09,07,11,16.30
2017,07,09,07,12,16.40
2017,07,09,07,13,16.40
2017,07,09,07,14,16.40
2017,07,09,07,15,16.40
2017,07,09,07,16,16.40
2017,07,09,07,17,16.40
2017,07,09,07,18,16.40
2017,07,09,07,19,16.40
2017,07,09,07,20,16.40
2017,07,09,07,21,16.40
2017,07,09,07,22,16.50
2017,07,09,07,23,16.50
2017,07,09,07,24,16.50
2017,07,09,07,25,16.50
2017,07,09,07,26,16.60
2017,07,09,07,27,16.60
2017,07,09,07,28,16.60
2017,07,09,07,29,16.60
2017,07,09,07,30,16.70
2017,07,09,07,31,16.70
2017,07,09,07,32,16.70
2017,07,09,07,33,16.70
2017,07,09,07,34,16.70
2017,07,09,07,35,16.80
2017,07,09,07,36,16.80
2017,07,09,07,37,16.80
2017,07,09,07,38,16.80
2017,07,09,07,39,16.90
2017,07,09,07,40,16.90
2017,07,09,07,41,16.90
2017,07,09,07,42,16.90
2017,07,09,07,43,16.90
2017,07,09,07,44,16.90
2017,07,09,07,45,16.90
2017,07,09,07,46,17.10
2017,07,09,07,47,17.10
2017,07,09,07,48,17.20
2017,07,09,07,49,17.20
2017,07,09,07,50,17.20
2017,07,09,07,51,17.30
2017,07,09,07,52,17.30
2017,07,09,07,53,17.30
2017,07,09,07,54,17.40
2017,07,09,07,55,17.40
2017,07,09,07,56,17.50
2017,07,09,07,57,17.50
2017,07,09,07,58,17.60
2017,07,09,07,59,17.60
2017,07,09,08,00,17.60
2017,07,09,08,01,17.60
2017,07,09,08,02,17.70
2017,07,09,08,03,17.70
2017,07,09,08,04,17.70
2017,07,09,08,05,17.80
2017,07,09,08,06,17.80
2017,07,09,08,07,17.90
2017,07,09,08,08,17.90
2017,07,09,08,09,18.00
2017,07,09,08,10,18.10
2017,07,09,08,11,18.10
2017,07,09,08,12,18.20
2017,07,09,08,13,18.20
2017,07,09,08,14,18.30
2017,07,09,08,15,18.30
2017,07,09,08,16,18.30
2017,07,09,08,17,18.30
2017,07,09,08,18,18.30
2017,07,09,08,19,18.30
2017,07,09,08,20,18.40
2017,07,09,08,21,18.40
2017,07,09,08,22,18.40
2017,07,09,08,23,18.40
2017,07,09,08,24,18.40
2017,07,09,08,25,18.40
2017,07,09,08,26,18.40
2017,07,09,08,27,18.40
2017,07,09,08,28,18.40
2017,07,09,08,29,18.40
2017,07,09,08,30,18.40
2017,07,09,08,31,18.40
2017,07,09,08,32,18.40
2017,07,09,08,33,18.40
2017,07,09,08,34,18.40
2017,07,09,08,35,18.40
2017,07,09,08,36,18.50
2017,07,09,08,37,18.50
2017,07,09,08,38,18.50
2017,07,09,08,39,18.50
2017,07,09,08,40,18.50
2017,07,09,08,41,18.50
2017,07,09,08,42,18.50
2017,07,09,08,43,18.60
2017,07,09,08,44,18.60
2017,07,09,08,45,18.60
2017,07,09,08,46,18.60
2017,07,09,08,47,18.60
2017,07,09,08,48,18.60
2017,07,09,08,49,18.60
2017,07,09,08,50,18.70
2017,07,09,08,51,18.70
2017,07,09,08,52,18.70
2017,07,09,08,53,18.70
2017,07,09,08,54,18.70
2017,07,09,08,55,18.70
2017,07,09,08,56,18.70
2017,07,09,08,57,18.70
2017,07,09,08,58,18.70
2017,07,09,08,59,18.70
2017,07,09,09,00,18.80
2017,07,09,09,01,18.80
2017,07,09,09,02,18.70
2017,07,09,09,03,18.70
2017,07,09,09,04,18.60
2017,07,09,09,05,18.50
2017,07,09,09,06,18.50
2017,07,09,09,07,18.50
2017,07,09,09,08,18.50
2017,07,09,09,09,18.50
2017,07,09,09,10,18.50
2017,07,09,09,11,18.60
2017,07,09,09,12,18.60
2017,07,09,09,13,18.60
2017,07,09,09,14,18.60
2017,07,09,09,15,18.60
2017,07,09,09,16,18.60
2017,07,09,09,17,18.60
2017,07,09,09,18,18.60
2017,07,09,09,19,18.60
2017,07,09,09,20,18.60
2017,07,09,09,21,18.60
2017,07,09,09,22,18.60
2017,07,09,09,23,18.60
2017,07,09,09,24,18.60
2017,07,09,09,25,18.70
2017,07,09,09,26,18.70
2017,07,09,09,27,18.70
2017,07,09,09,28,18.70
2017,07,09,09,29,18.70
2017,07,09,09,30,18.70
2017,07,09,09,31,18.70
2017,07,09,09,32,18.70
2017,07,09,09,33,18.60
2017,07,09,09,34,18.60
2017,07,09,09,35,18.70
2017,07,09,09,36,18.70
2017,07,09,09,37,18.70
2017,07,09,09,38,18.70
2017,07,09,09,39,18.80
2017,07,09,09,40,18.80
2017,07,09,09,41,18.80
2017,07,09,09,42,18.80
2017,07,09,09,43,18.80
2017,07,09,09,44,18.80
2017,07,09,09,45,18.80
2017,07,09,09,46,18.80
2017,07,09,09,47,18.80
2017,07,09,09,48,18.80
2017,07,09,09,49,18.90
2017,07,09,09,50,18.90
2017,07,09,09,51,18.90
2017,07,09,09,52,19.00
2017,07,09,09,53,19.00
2017,07,09,09,54,19.00
2017,07,09,09,55,18.90
2017,07,09,09,56,18.90
2017,07,09,09,57,18.90
2017,07,09,09,58,18.90
2017,07,09,09,59,19.00
2017,07,09,10,00,18.90
2017,07,09,10,01,18.90
2017,07,09,10,02,18.90
2017,07,09,10,03,18.90
2017,07,09,10,04,18.80
2017,07,09,10,05,18.80
2017,07,09,10,06,18.90
2017,07,09,10,07,18.90
2017,07,09,10,08,18.90
2017,07,09,10,09,18.90
2017,07,09,10,10,18.90
2017,07,09,10,11,19.00
2017,07,09,10,12,19.00
2017,07,09,10,13,19.00
2017,07,09,10,14,19.10
2017,07,09,10,15,19.20
2017,07,09,10,16,19.20
2017,07,09,10,17,19.20
2017,07,09,10,18,19.20
2017,07,09,10,19,19.20
2017,07,09,10,20,19.20
2017,07,09,10,21,19.20
2017,07,09,10,22,19.20
2017,07,09,10,23,19.20
2017,07,09,10,24,19.20
2017,07,09,10,25,19.10
2017,07,09,10,26,19.10
2017,07,09,10,27,19.10
2017,07,09,10,28,19.20
2017,07,09,10,29,19.20
2017,07,09,10,30,19.10
2017,07,09,10,31,19.10
2017,07,09,10,32,19.10
2017,07,09,10,33,19.20
2017,07,09,10,34,19.20
2017,07,09,10,35,19.30
2017,07,09,10,36,19.30
2017,07,09,10,37,19.40
2017,07,09,10,38,19.50
2017,07,09,10,39,19.60
2017,07,09,10,40,19.60
2017,07,09,10,41,19.70
2017,07,09,10,42,19.80
2017,07,09,10,43,19.80
2017,07,09,10,44,19.90
2017,07,09,10,45,20.00
2017,07,09,10,46,20.10
2017,07,09,10,47,20.20
2017,07,09,10,48,20.30
2017,07,09,10,49,20.20
2017,07,09,10,50,20.20
2017,07,09,10,51,20.20
2017,07,09,10,52,20.20
2017,07,09,10,53,20.20
2017,07,09,10,54,20.30
2017,07,09,10,55,20.30
2017,07,09,10,56,20.30
2017,07,09,10,57,20.30
2017,07,09,10,58,20.40
2017,07,09,10,59,20.50
2017,07,09,11,00,20.60
2017,07,09,11,01,20.70
2017,07,09,11,02,20.70
2017,07,09,11,03,20.70
2017,07,09,11,04,20.70
2017,07,09,11,05,20.80
2017,07,09,11,06,20.80
2017,07,09,11,07,20.80
2017,07,09,11,08,20.70
2017,07,09,11,09,20.70
2017,07,09,11,10,20.70
2017,07,09,11,11,20.70
2017,07,09,11,12,20.90
2017,07,09,11,13,21.00
2017,07,09,11,14,21.10
2017,07,09,11,15,21.10
2017,07,09,11,16,21.20
2017,07,09,11,17,21.20
2017,07,09,11,18,21.20
2017,07,09,11,19,21.20
2017,07,09,11,20,21.10
2017,07,09,11,21,21.20
2017,07,09,11,22,21.20
2017,07,09,11,23,21.20
2017,07,09,11,24,21.30
2017,07,09,11,25,21.40
2017,07,09,11,26,21.50
2017,07,09,11,27,21.60
2017,07,09,11,28,21.60
2017,07,09,11,29,21.60
2017,07,09,11,30,21.60
2017,07,09,11,31,21.60
2017,07,09,11,32,21.70
2017,07,09,11,33,21.70
2017,07,09,11,34,21.80
2017,07,09,11,35,21.80
2017,07,09,11,36,21.90
2017,07,09,11,37,21.90
2017,07,09,11,38,21.90
2017,07,09,11,39,21.90
2017,07,09,11,40,21.90
2017,07,09,11,41,21.90
2017,07,09,11,42,22.00
2017,07,09,11,43,22.00
2017,07,09,11,44,22.10
2017,07,09,11,45,22.10
2017,07,09,11,46,22.10
2017,07,09,11,47,22.10
2017,07,09,11,48,22.10
2017,07,09,11,49,22.10
2017,07,09,11,50,22.10
2017,07,09,11,51,22.10
2017,07,09,11,52,22.20
2017,07,09,11,53,22.30
2017,07,09,11,54,22.30
2017,07,09,11,55,22.40
2017,07,09,11,56,22.50
2017,07,09,11,57,22.60
2017,07,09,11,58,22.60
2017,07,09,11,59,22.50
2017,07,09,12,00,22.50
2017,07,09,12,01,22.40
2017,07,09,12,02,22.40
2017,07,09,12,03,22.30
2017,07,09,12,04,22.30
2017,07,09,12,05,22.20
2017,07,09,12,06,22.20
2017,07,09,12,07,22.10
2017,07,09,12,08,22.00
2017,07,09,12,09,21.90
2017,07,09,12,10,21.90
2017,07,09,12,11,21.90
2017,07,09,12,12,21.90
2017,07,09,12,13,21.90
2017,07,09,12,14,21.90
2017,07,09,12,15,21.90
2017,07,09,12,16,21.90
2017,07,09,12,17,21.80
2017,07,09,12,18,21.80
2017,07,09,12,19,21.80
2017,07,09,12,20,21.80
2017,07,09,12,21,21.80
2017,07,09,12,22,21.80
2017,07,09,12,23,21.90
2017,07,09,12,24,21.90
2017,07,09,12,25,21.90
2017,07,09,12,26,21.90
2017,07,09,12,27,21.90
2017,07,09,12,28,21.90
2017,07,09,12,29,22.00
2017,07,09,12,30,22.00
2017,07,09,12,31,22.10
2017,07,09,12,32,22.10
2017,07,09,12,33,22.20
2017,07,09,12,34,22.20
2017,07,09,12,35,22.30
2017,07,09,12,36,22.30
2017,07,09,12,37,22.30
2017,07,09,12,38,22.30
2017,07,09,12,39,22.30
2017,07,09,12,40,22.30
2017,07,09,12,41,22.30
2017,07,09,12,42,22.30
2017,07,09,12,43,22.30
2017,07,09,12,44,22.30
2017,07,09,12,45,22.20
2017,07,09,12,46,22.10
2017,07,09,12,47,22.10
2017,07,09,12,48,22.10
2017,07,09,12,49,22.00
2017,07,09,12,50,22.00
2017,07,09,12,51,22.10
2017,07,09,12,52,22.10
2017,07,09,12,53,22.10
2017,07,09,12,54,22.20
2017,07,09,12,55,22.30
2017,07,09,12,56,22.40
2017,07,09,12,57,22.50
2017,07,09,12,58,22.50
2017,07,09,12,59,22.60
2017,07,09,13,00,22.60
2017,07,09,13,01,22.60
2017,07,09,13,02,22.60
2017,07,09,13,03,22.60
2017,07,09,13,04,22.60
2017,07,09,13,05,22.60
2017,07,09,13,06,22.70
2017,07,09,13,07,22.70
2017,07,09,13,08,22.70
2017,07,09,13,09,22.70
2017,07,09,13,10,22.80
2017,07,09,13,11,22.80
2017,07,09,13,12,22.90
2017,07,09,13,13,23.00
2017,07,09,13,14,23.10
2017,07,09,13,15,23.20
2017,07,09,13,16,23.30
2017,07,09,13,17,23.40
2017,07,09,13,18,23.40
2017,07,09,13,19,23.40
2017,07,09,13,20,23.40
2017,07,09,13,21,23.40
2017,07,09,13,22,23.70
2017,07,09,13,23,23.90
2017,07,09,13,24,24.00
2017,07,09,13,25,24.10
2017,07,09,13,26,24.00
2017,07,09,13,27,23.90
2017,07,09,13,28,23.90
2017,07,09,13,29,23.80
2017,07,09,13,30,23.70
2017,07,09,13,31,23.60
2017,07,09,13,32,23.60
2017,07,09,13,33,23.60
2017,07,09,13,34,23.60
2017,07,09,13,35,23.60
2017,07,09,13,36,23.60
2017,07,09,13,37,23.70
2017,07,09,13,38,23.70
2017,07,09,13,39,23.80
2017,07,09,13,40,23.80
2017,07,09,13,41,23.80
2017,07,09,13,42,23.90
2017,07,09,13,43,23.90
2017,07,09,13,44,23.80
2017,07,09,13,45,23.70
2017,07,09,13,46,23.60
2017,07,09,13,47,23.60
2017,07,09,13,48,23.60
2017,07,09,13,49,23.60
2017,07,09,13,50,23.70
2017,07,09,13,51,23.70
2017,07,09,13,52,23.70
2017,07,09,13,53,23.70
2017,07,09,13,54,23.80
2017,07,09,13,55,23.90
2017,07,09,13,56,23.90
2017,07,09,13,57,24.00
2017,07,09,13,58,24.00
2017,07,09,13,59,24.10
2017,07,09,14,00,24.10
2017,07,09,14,01,24.10
2017,07,09,14,02,24.20
2017,07,09,14,03,24.30
2017,07,09,14,04,24.30
2017,07,09,14,05,24.20
2017,07,09,14,06,24.20
2017,07,09,14,07,24.30
2017,07,09,14,08,24.30
2017,07,09,14,09,24.30
2017,07,09,14,10,24.20
2017,07,09,14,11,24.20
2017,07,09,14,12,24.20
2017,07,09,14,13,24.20
2017,07,09,14,14,24.20
2017,07,09,14,15,24.20
2017,07,09,14,16,24.30
2017,07,09,14,17,24.40
2017,07,09,14,18,24.40
2017,07,09,14,19,24.40
2017,07,09,14,20,24.30
2017,07,09,14,21,24.40
2017,07,09,14,22,24.40
2017,07,09,14,23,24.40
2017,07,09,14,24,24.40
2017,07,09,14,25,24.40
2017,07,09,14,26,24.40
2017,07,09,14,27,24.40
2017,07,09,14,28,24.50
2017,07,09,14,29,24.60
2017,07,09,14,30,24.60
2017,07,09,14,31,24.70
2017,07,09,14,32,24.90
2017,07,09,14,33,25.00
2017,07,09,14,34,25.20
2017,07,09,14,35,25.20
2017,07,09,14,36,25.20
2017,07,09,14,37,25.30
2017,07,09,14,38,25.40
2017,07,09,14,39,25.40
2017,07,09,14,40,25.40
2017,07,09,14,41,25.20
2017,07,09,14,42,25.10
2017,07,09,14,43,24.90
2017,07,09,14,44,24.80
2017,07,09,14,45,24.80
2017,07,09,14,46,24.90
2017,07,09,14,47,25.00
2017,07,09,14,48,25.00
2017,07,09,14,49,25.00
2017,07,09,14,50,25.00
2017,07,09,14,51,25.00
2017,07,09,14,52,25.10
2017,07,09,14,53,25.10
2017,07,09,14,54,25.00
2017,07,09,14,55,24.90
2017,07,09,14,56,24.90
2017,07,09,14,57,24.90
2017,07,09,14,58,25.00
2017,07,09,14,59,25.10
2017,07,09,15,00,25.30
2017,07,09,15,01,25.20
2017,07,09,15,02,25.10
2017,07,09,15,03,25.00
2017,07,09,15,04,24.90
2017,07,09,15,05,24.90
2017,07,09,15,06,24.90
2017,07,09,15,07,24.90
2017,07,09,15,08,24.90
2017,07,09,15,09,24.90
2017,07,09,15,10,24.80
2017,07,09,15,11,24.80
2017,07,09,15,12,24.80
2017,07,09,15,13,24.80
2017,07,09,15,14,24.80
2017,07,09,15,15,24.80
2017,07,09,15,16,24.80
2017,07,09,15,17,24.80
2017,07,09,15,18,24.80
2017,07,09,15,19,24.80
2017,07,09,15,20,24.90
2017,07,09,15,21,25.00
2017,07,09,15,22,25.00
2017,07,09,15,23,25.10
2017,07,09,15,24,25.10
2017,07,09,15,25,25.00
2017,07,09,15,26,25.10
2017,07,09,15,27,25.10
2017,07,09,15,28,25.20
2017,07,09,15,29,25.30
2017,07,09,15,30,25.30
2017,07,09,15,31,25.30
2017,07,09,15,32,25.30
2017,07,09,15,33,25.20
2017,07,09,15,34,25.20
2017,07,09,15,35,25.20
2017,07,09,15,36,25.20
2017,07,09,15,37,25.20
2017,07,09,15,38,25.20
2017,07,09,15,39,25.20
2017,07,09,15,40,25.20
2017,07,09,15,41,25.20
2017,07,09,15,42,25.20
2017,07,09,15,43,25.10
2017,07,09,15,44,25.10
2017,07,09,15,45,25.10
2017,07,09,15,46,25.10
2017,07,09,15,47,25.20
2017,07,09,15,48,25.30
2017,07,09,15,49,25.30
2017,07,09,15,50,25.40
2017,07,09,15,51,25.40
2017,07,09,15,52,25.40
2017,07,09,15,53,25.30
2017,07,09,15,54,25.30
2017,07,09,15,55,25.30
2017,07,09,15,56,25.40
2017,07,09,15,57,25.40
2017,07,09,15,58,25.40
2017,07,09,15,59,25.40
2017,07,09,16,00,25.50
2017,07,09,16,01,25.50
2017,07,09,16,02,25.50
2017,07,09,16,03,25.50
2017,07,09,16,04,25.50
2017,07,09,16,05,25.50
2017,07,09,16,06,25.40
2017,07,09,16,07,25.50
2017,07,09,16,08,25.60
2017,07,09,16,09,25.70
2017,07,09,16,10,25.70
2017,07,09,16,11,25.70
2017,07,09,16,12,25.80
2017,07,09,16,13,25.80
2017,07,09,16,14,25.70
2017,07,09,16,15,25.70
2017,07,09,16,16,25.80
2017,07,09,16,17,25.80
2017,07,09,16,18,25.80
2017,07,09,16,19,25.80
2017,07,09,16,20,25.90
2017,07,09,16,21,26.00
2017,07,09,16,22,26.10
2017,07,09,16,23,26.20
2017,07,09,16,24,26.30
2017,07,09,16,25,26.30
2017,07,09,16,26,26.20
2017,07,09,16,27,26.20
2017,07,09,16,28,26.20
2017,07,09,16,29,26.10
2017,07,09,16,30,26.00
2017,07,09,16,31,25.90
2017,07,09,16,32,26.00
2017,07,09,16,33,26.10
2017,07,09,16,34,26.20
2017,07,09,16,35,26.20
2017,07,09,16,36,26.20
2017,07,09,16,37,26.30
2017,07,09,16,38,26.30
2017,07,09,16,39,26.30
2017,07,09,16,40,26.20
2017,07,09,16,41,26.20
2017,07,09,16,42,26.20
2017,07,09,16,43,26.30
2017,07,09,16,44,26.30
2017,07,09,16,45,26.20
2017,07,09,16,46,26.10
2017,07,09,16,47,26.00
2017,07,09,16,48,25.90
2017,07,09,16,49,25.80
2017,07,09,16,50,25.70
2017,07,09,16,51,25.60
2017,07,09,16,52,25.50
2017,07,09,16,53,25.40
2017,07,09,16,54,25.50
2017,07,09,16,55,25.50
2017,07,09,16,56,25.60
2017,07,09,16,57,25.60
2017,07,09,16,58,25.70
2017,07,09,16,59,25.70
2017,07,09,17,00,25.70
2017,07,09,17,01,25.60
2017,07,09,17,02,25.60
2017,07,09,17,03,25.60
2017,07,09,17,04,25.60
2017,07,09,17,05,25.70
2017,07,09,17,06,25.70
2017,07,09,17,07,25.70
2017,07,09,17,08,25.80
2017,07,09,17,09,25.80
2017,07,09,17,10,25.70
2017,07,09,17,11,25.70
2017,07,09,17,12,25.60
2017,07,09,17,13,25.60
2017,07,09,17,14,25.60
2017,07,09,17,15,25.50
2017,07,09,17,16,25.50
2017,07,09,17,17,25.40
2017,07,09,17,18,25.40
2017,07,09,17,19,25.40